Location: Karaa?a�
(36.7158°N, 30.4165°E)
Time: 09:53:38
(UTC+00:00)

ISS - Visible Passes

Search period start: 04 July 2020 00:00
Search period end: 14 July 2020 00:00
Orbit: 417 x 421 km, 51.6° (Epoch: 04 July)

Date Brightness Start Highest point End Pass type
(mag) Time Alt. Az. Time Alt. Az. Time Alt. Az.
04 Jul -0.8 23:04:10 15° NE 23:04:10 15° NE 23:04:53 10° NE visible
05 Jul -0.9 00:37:18 10° NW 00:38:51 13° NNW 00:40:25 10° N visible
05 Jul -1.2 23:51:01 17° NNW 23:51:02 17° NNW 23:53:21 10° NNE visible
06 Jul -0.8 23:04:53 17° N 23:04:53 17° N 23:06:06 10° NNE visible
07 Jul -0.3 22:18:41 10° NE 22:18:41 10° NE 22:18:42 10° NE visible
08 Jul -0.6 23:05:20 13° NNW 23:05:20 13° NNW 23:06:44 10° N visible
09 Jul -0.4 22:18:59 13° N 22:18:59 13° N 22:19:37 10° NNE visible
12 Jul -0.6 01:33:35 10° N 01:35:31 14° NNE 01:37:28 10° ENE visible
12 Jul -0.4 21:31:37 13° NNW 21:31:37 13° NNW 21:32:54 10° N visible
13 Jul -0.2 00:46:40 10° N 00:47:36 11° NNE 00:48:30 10° NE visible
13 Jul -2.6 02:21:46 10° NW 02:25:02 49° NE 02:28:18 10° ESE visible
13 Jul -3.9 19:03:00 10° SW 19:06:20 62° SE 19:09:39 10° NE visible
13 Jul -0.8 20:41:02 10° WNW 20:43:23 17° NNW 20:45:44 10° NNE visible
